Regional Weather Roundup
Issued by NWS Newport/Morehead, NC

Current Version | Previous Version | Text Only | Print | Product List | Glossary On
Versions: 1 2 3 4 5 6 7 8 9 10 11 12 13 14 15 16 17 18 19 20 21 22 23 24 25 26 27 28 29 30 31 32 33 34 35 36 37 38 39 40 41 42 43 44 45 46 47 48 49 50
000
ASUS42 KMHX 280425
RWRMHX
WEATHER ROUNDUP FOR EASTERN NORTH CAROLINA
NATIONAL WEATHER SERVICE NEWPORT/MOREHEAD CITY NC
1200 AM EDT THU MAY 28 2015

NOTE: "FAIR" INDICATES FEW OR NO CLOUDS BELOW 12,000 FEET
WITH NO SIGNIFICANT WEATHER AND/OR OBSTRUCTIONS TO VISIBILITY

NCZ015>017-031-032-045>047-102-103-280500-
NORTH COAST

CITY           SKY/WX    TMP DP  RH WIND       PRES   REMARKS
EDENTON        PTCLDY    71  66  83 S10       30.23F
ELIZABETH CITY PTCLDY    71  65  81 S7        30.23F
KITTY HAWK     CLEAR     71  63  76 SW5       30.24F
MANTEO         CLEAR     71  64  77 SW8       30.25F

$$

NCZ045>047-081-094-103-104-280500-
CENTRAL COAST

CITY           SKY/WX    TMP DP  RH WIND       PRES   REMARKS
FRISCO         CLEAR     71  61  70 SW8       30.27S
SWANQUARTER      N/A     73 N/A N/A S8G15     30.21S

$$

NCZ095-097-098-100-101-280500-
SOUTHERN COAST

CITY           SKY/WX    TMP DP  RH WIND       PRES   REMARKS
BEAUFORT       CLEAR     71  63  75 S5        30.25S
CEDAR ISLAND     N/A     70 N/A N/A S2        30.30S
JACKSONVILLE   CLEAR     69  65  86 S5        30.23F
PINEY ISLAND   CLEAR    N/A N/A N/A S6        30.25F
WILMINGTON     PTCLDY    71  65  81 SE5       30.23F


$$

NCZ011>013-027>030-043-044-078>080-089-090>093-098-280500-
COASTAL PLAIN

CITY           SKY/WX    TMP DP  RH WIND       PRES   REMARKS
AHOSKIE        CLOUDY    72  66  82 S3        30.22F
CLINTON        MOCLDY    72  69  93 CALM      30.25R
ELIZABETHTOWN  MOCLDY    71  67  87 CALM      30.24R
GOLDSBORO      NOT AVBL
GREENVILLE     MOCLDY    72  68  88 S6        30.24S
HAVELOCK       CLEAR     65  62  90 SE6       30.26F
KENANSVILLE    MOCLDY    69  66  90 CALM      30.25S
KINSTON        MOCLDY    73  67  81 S7        30.25S
NEW BERN       CLEAR     69  64  84 S3        30.26S
RICHLANDS      PTCLDY    66  63  88 CALM      30.25S
ROCKY MOUNT    CLOUDY    72  70  93 SE3       30.23S
WASHINGTON     PTCLDY    71  66  83 S5        30.24F
WHITEVILLE     PTCLDY    70  66  87 CALM      30.23S

$$

AMZ130-135-150-152-154-156-158-170-250-252-270-ANZ085-086-088-633-658-670-280500-
MARINE OBSERVATIONS

STATION/POSITION TIME  TEMP    WIND        PRES    WAVE   SWELL
                       AIR SEA DIR/SP/G            HT/PER HT/PER
                 (UTC) (F)     (DEG/KT/KT) (MB)    (FT/S) (FT/S)
CHESAPEAKE LIGHT 0400   67     190/ 20/ 21 1023.7
64 E VA BEACH    0350   66 64  190/  6/  8 1024.3    3/ 8   2/ 8
DUCK             0400   72 55  190/ 11/ 13 1023.2
2 E DUCK         0311      59                N/A     2/ 7
OREGON INLET     0400   73 77  200/ 12/ 14 1024.4
13E OREGON INLT  0400      68                N/A     3/ 5
HATTERAS CG      0400   73 76  190/  3/  7 1024.2
DIAMOND BUOY     0350   74 77  190/  8/ 10 1024.9    3/ 7   3/ 7
CAPE LOOKOUT     0400   73     170/  6/  7 1024.2
BEAUFORT LAB     0400   74 76  190/  6/  8 1023.6
27 SE WRIGHTSVLE 0400      76  220/  6/  8   N/A
5 SE WRIGHTSVLE  0308   75 77  180/  8/ 12 1024.1
225 S CAPE HAT   0350   73 74   90/ 10/ 12 1024.2    5/ 7   5/ 7
41 SE CHARLESTON 0350   77 78  120/  8/ 10 1022.9    3/ 7   3/ 7

$$



USA.gov is the U.S. government's official web portal to all federal, state and local government web resources and services.